Siemreap, Cambodia

1:29 AM +07 on August 19, 2017 (GMT +0700)
Siem Reap

Weather History for VDSR - March, 2014

Change the Weather History Date:

Thursday, March 20, 2014

  Actual Average Record
Temperature  
Mean Temperature 87 °F -  
Max Temperature 96 °F - - ()
Min Temperature 78 °F - - ()
Cooling Degree Days 22    
Growing Degree Days 37 (Base 50)    
Moisture  
Dew Point 76 °F    
Average Humidity 69    
Maximum Humidity 100    
Minimum Humidity 47    
Precipitation  
Precipitation 0.00 in - - ()
Sea Level Pressure  
Sea Level Pressure 29.76 in    
Wind  
Wind Speed 6 mph ()    
Max Wind Speed 10 mph    
Max Gust Speed -    
Visibility 5.9 miles    
Events      
T = Trace of Precipitation, MM = Missing Value Source: Averaged Metar Reports

Daily Weather History Graph

Daily Weather History Graph

Search for Another Location

Airport or City:

Trip Planner

Search our weather history database for the weather conditions in past years. The results will help you decide how hot, cold, wet, or windy it might be!

Date:

Astronomy

Mar. 20, 2014 Rise Set
Actual Time 6:09 AM +07 6:15 PM +07
Civil Twilight 5:47 AM +07 6:36 PM +07
Nautical Twilight 5:23 AM +07 7:01 PM +07
Astronomical Twilight 4:58 AM +07 7:26 PM +07
Moon 9:23 PM +07 (3/20) 8:27 AM +07 (3/20)
Length of Visible Light 12h 48m
Length of Day
12h 06m
Waning Gibbous, 88% of the Moon is Illuminated
Mar 20
Waning Gibbous
Mar 24
Last Quarter
Mar 31
New
Apr 7
First Quarter
Apr 15
Full

Hourly Weather History & Observations

Time (+07) Temp. Heat Index Dew Point Humidity Pressure Visibility Wind Dir Wind Speed Gust Speed Precip Events Conditions
12:00 AM 82.4 °F 92.4 °F 78.8 °F 89% 29.80 in 5.6 mi WSW 10.4 mph - N/A   Scattered Clouds
12:30 AM 82.4 °F 92.4 °F 78.8 °F 89% 29.77 in 5.6 mi WSW 5.8 mph - N/A   Unknown
1:00 AM 82.4 °F 92.4 °F 78.8 °F 89% 29.80 in 5.6 mi WSW 10.4 mph - N/A   Scattered Clouds
7:00 AM 78.8 °F - 78.8 °F 100% 29.83 in 5.6 mi WSW 6.9 mph - N/A   Unknown
7:30 AM 82.4 °F 92.4 °F 78.8 °F 89% 29.83 in - West 4.6 mph - N/A   Clear
8:00 AM 82.4 °F 90.9 °F 77.0 °F 84% 29.86 in - WNW 6.9 mph - N/A   Clear
8:30 AM 84.2 °F 94.1 °F 77.0 °F 79% 29.86 in - NW 6.9 mph - N/A   Clear
9:00 AM 86.0 °F 96.9 °F 77.0 °F 74% 29.86 in - West 9.2 mph - N/A   Clear
9:30 AM 87.8 °F 99.7 °F 77.0 °F 70% 29.86 in - SW 9.2 mph - N/A   Clear
10:00 AM 87.8 °F 99.7 °F 77.0 °F 70% 29.86 in - WNW 4.6 mph - N/A   Clear
10:30 AM 89.6 °F 99.8 °F 75.2 °F 62% 29.86 in 5.6 mi WSW 8.1 mph - N/A   Scattered Clouds
11:00 AM 89.6 °F 99.8 °F 75.2 °F 62% 29.56 in 6.2 mi SW 6.9 mph - N/A   Scattered Clouds
11:30 AM 91.4 °F 102.5 °F 75.2 °F 59% 29.83 in 6.2 mi Variable 3.5 mph - N/A   Scattered Clouds
12:00 PM 91.4 °F 100.1 °F 73.4 °F 55% 29.80 in 6.2 mi Variable 3.5 mph - N/A   Scattered Clouds
12:30 PM 93.2 °F 105.0 °F 75.2 °F 56% 29.80 in 6.2 mi SW 8.1 mph - N/A   Scattered Clouds
1:30 PM 95.0 °F 104.5 °F 73.4 °F 49% 29.74 in 6.2 mi SSW 4.6 mph - N/A   Scattered Clouds
2:30 PM 96.8 °F 107.3 °F 73.4 °F 47% 29.71 in 6.2 mi SW 8.1 mph - N/A   Scattered Clouds
3:00 PM 96.8 °F 107.3 °F 73.4 °F 47% 29.68 in 6.2 mi West 9.2 mph - N/A   Scattered Clouds
3:30 PM 96.8 °F 107.3 °F 73.4 °F 47% 29.68 in 6.2 mi WSW 3.5 mph - N/A   Scattered Clouds
4:00 PM 96.8 °F 107.3 °F 73.4 °F 47% 29.68 in 6.2 mi WSW 6.9 mph - N/A   Scattered Clouds
4:30 PM 95.0 °F 104.5 °F 73.4 °F 49% 29.65 in 6.2 mi South 4.6 mph - N/A   Scattered Clouds
5:00 PM 95.0 °F 107.4 °F 75.2 °F 53% 29.65 in 6.2 mi SSE 6.9 mph - N/A   Scattered Clouds
6:30 PM 89.6 °F 102.2 °F 77.0 °F 66% 29.68 in 5.6 mi SSE 3.5 mph - N/A   Partly Cloudy
7:00 PM 89.6 °F 102.2 °F 77.0 °F 66% 29.68 in 5.6 mi SSE 3.5 mph - N/A   Partly Cloudy
7:30 PM 89.6 °F 102.2 °F 77.0 °F 66% 29.71 in 5.6 mi South 2.3 mph - N/A   Partly Cloudy
8:30 PM 87.8 °F 99.7 °F 77.0 °F 70% 29.71 in 5.6 mi SSE 3.5 mph - N/A   Partly Cloudy
9:00 PM 87.8 °F 99.7 °F 77.0 °F 70% 29.71 in 5.6 mi ESE 2.3 mph - N/A   Partly Cloudy
9:30 PM 86.0 °F 96.9 °F 77.0 °F 74% 29.74 in 5.6 mi ESE 3.5 mph - N/A   Partly Cloudy
10:00 PM 86.0 °F 96.9 °F 77.0 °F 74% 29.74 in 5.6 mi ESE 3.5 mph - N/A   Partly Cloudy
10:30 PM 86.0 °F 99.3 °F 78.8 °F 79% 29.74 in 5.6 mi Variable 3.5 mph - N/A   Partly Cloudy
11:00 PM 84.2 °F 98.3 °F 80.6 °F 89% 29.74 in 5.6 mi West 3.5 mph - N/A   Partly Cloudy
11:30 PM 84.2 °F 96.1 °F 78.8 °F 84% 29.74 in 5.6 mi Calm Calm - N/A   Partly Cloudy